This is the latest recevied weather packets stored in our database for station/object XE2OR-10. If no packets are shown the sender has not sent any weather packets the latest 10 day(s).
| Time | Temp. | Humidity | Pressure | Rain* | Wind** | Luminosity | Snow |
|---|---|---|---|---|---|---|---|
| 1777909432 | 23.89° C | 78% | 1017.7 hPa | 0 mm | - | 721 W/m² | - |
| 1777909129 | 23.89° C | 78% | 1017.9 hPa | 0 mm | - | 627 W/m² | - |
| 1777908829 | 23.33° C | 78% | 1017.9 hPa | 0 mm | - | 664 W/m² | - |
| 1777908529 | 23.33° C | 79% | 1018 hPa | 0 mm | - | 374 W/m² | - |
| 1777908233 | 22.78° C | 79% | 1017.9 hPa | 0 mm | - | 433 W/m² | - |
| 1777907929 | 22.22° C | 80% | 1017.8 hPa | 0 mm | - | 395 W/m² | - |
| 1777907633 | 22.78° C | 80% | 1017.9 hPa | 0 mm | - | 274 W/m² | - |
| 1777907329 | 22.78° C | 79% | 1018 hPa | 0 mm | - | 454 W/m² | - |
| 1777907029 | 22.78° C | 80% | 1017.9 hPa | 0 mm | - | 548 W/m² | - |
| 1777906729 | 22.22° C | 81% | 1017.8 hPa | 0 mm | - | 557 W/m² | - |
| 1777906433 | 21.67° C | 81% | 1018 hPa | 0 mm | - | 309 W/m² | - |
| 1777906129 | 22.22° C | 81% | 1018.1 hPa | 0 mm | - | 338 W/m² | - |
| 1777905832 | 21.67° C | 81% | 1018.2 hPa | 0 mm | - | 296 W/m² | - |
| 1777905529 | 21.11° C | 82% | 1017.8 hPa | 0 mm | - | 270 W/m² | - |
| 1777905228 | 21.11° C | 82% | 1018.2 hPa | 0 mm | - | 177 W/m² | - |
| 1777904929 | 21.67° C | 82% | 1018.1 hPa | 0 mm | - | 196 W/m² | - |
| 1777904633 | 21.11° C | 82% | 1018.1 hPa | 0 mm | - | 241 W/m² | - |
| 1777904329 | 21.11° C | 82% | 1018.1 hPa | 0 mm | - | 265 W/m² | - |
| 1777904033 | 21.11° C | 82% | 1017.9 hPa | 0 mm | - | 333 W/m² | - |
| 1777903729 | 20.56° C | 82% | 1018 hPa | 0 mm | - | 242 W/m² | - |
| 1777903428 | 20.56° C | 83% | 1018 hPa | 0 mm | - | 211 W/m² | - |
| 1777903129 | 20° C | 83% | 1018 hPa | 0 mm | - | 197 W/m² | - |
| 1777902832 | 20° C | 83% | 1018.1 hPa | 0 mm | - | 142 W/m² | - |
| 1777902529 | 20° C | 84% | 1017.9 hPa | 0 mm | - | 119 W/m² | - |
| 1777902232 | 20° C | 84% | 1018 hPa | 0 mm | - | 133 W/m² | - |
* Rain latest hour (hover to see other rain measurements)
** Current wind speed in m/s (hover to see current wind gust speed)